Year,Month,Day,Hour,Minute,Value (Times are PST for temperature in C)
2009,07,02,00,00,12.80
2009,07,02,00,01,12.80
2009,07,02,00,02,12.80
2009,07,02,00,03,12.80
2009,07,02,00,04,12.80
2009,07,02,00,05,12.80
2009,07,02,00,06,12.80
2009,07,02,00,07,12.80
2009,07,02,00,08,12.80
2009,07,02,00,09,12.70
2009,07,02,00,10,12.70
2009,07,02,00,11,12.70
2009,07,02,00,12,12.70
2009,07,02,00,13,12.60
2009,07,02,00,14,12.60
2009,07,02,00,15,12.60
2009,07,02,00,16,12.60
2009,07,02,00,17,12.50
2009,07,02,00,18,12.50
2009,07,02,00,19,12.50
2009,07,02,00,20,12.40
2009,07,02,00,21,12.40
2009,07,02,00,22,12.40
2009,07,02,00,23,12.40
2009,07,02,00,24,12.40
2009,07,02,00,25,12.40
2009,07,02,00,26,12.40
2009,07,02,00,27,12.40
2009,07,02,00,28,12.40
2009,07,02,00,29,12.40
2009,07,02,00,30,12.40
2009,07,02,00,31,12.40
2009,07,02,00,32,12.30
2009,07,02,00,33,12.30
2009,07,02,00,34,12.30
2009,07,02,00,35,12.30
2009,07,02,00,36,12.30
2009,07,02,00,37,12.20
2009,07,02,00,38,12.20
2009,07,02,00,39,12.20
2009,07,02,00,40,12.20
2009,07,02,00,41,12.20
2009,07,02,00,42,12.10
2009,07,02,00,43,12.10
2009,07,02,00,44,12.10
2009,07,02,00,45,12.10
2009,07,02,00,46,12.10
2009,07,02,00,47,12.00
2009,07,02,00,48,12.00
2009,07,02,00,49,11.90
2009,07,02,00,50,11.90
2009,07,02,00,51,11.90
2009,07,02,00,52,11.90
2009,07,02,00,53,11.80
2009,07,02,00,54,11.80
2009,07,02,00,55,11.80
2009,07,02,00,56,11.70
2009,07,02,00,57,11.70
2009,07,02,00,58,11.70
2009,07,02,00,59,11.70
2009,07,02,01,00,11.60
2009,07,02,01,01,11.60
2009,07,02,01,02,11.50
2009,07,02,01,03,11.40
2009,07,02,01,04,11.40
2009,07,02,01,05,11.40
2009,07,02,01,06,11.30
2009,07,02,01,07,11.30
2009,07,02,01,08,11.30
2009,07,02,01,09,11.30
2009,07,02,01,10,11.30
2009,07,02,01,11,11.30
2009,07,02,01,12,11.30
2009,07,02,01,13,11.30
2009,07,02,01,14,11.30
2009,07,02,01,15,11.20
2009,07,02,01,16,11.20
2009,07,02,01,17,11.20
2009,07,02,01,18,11.20
2009,07,02,01,19,11.20
2009,07,02,01,20,11.20
2009,07,02,01,21,11.30
2009,07,02,01,22,11.30
2009,07,02,01,23,11.30
2009,07,02,01,24,11.30
2009,07,02,01,25,11.40
2009,07,02,01,26,11.40
2009,07,02,01,27,11.40
2009,07,02,01,28,11.40
2009,07,02,01,29,11.40
2009,07,02,01,30,11.30
2009,07,02,01,31,11.30
2009,07,02,01,32,11.30
2009,07,02,01,33,11.20
2009,07,02,01,34,11.20
2009,07,02,01,35,11.20
2009,07,02,01,36,11.10
2009,07,02,01,37,11.10
2009,07,02,01,38,11.00
2009,07,02,01,39,11.00
2009,07,02,01,40,10.90
2009,07,02,01,41,10.90
2009,07,02,01,42,10.90
2009,07,02,01,43,10.90
2009,07,02,01,44,10.90
2009,07,02,01,45,10.90
2009,07,02,01,46,10.90
2009,07,02,01,47,10.90
2009,07,02,01,48,10.90
2009,07,02,01,49,10.90
2009,07,02,01,50,11.00
2009,07,02,01,51,11.00
2009,07,02,01,52,11.00
2009,07,02,01,53,11.00
2009,07,02,01,54,11.10
2009,07,02,01,55,11.10
2009,07,02,01,56,11.10
2009,07,02,01,57,11.10
2009,07,02,01,58,11.10
2009,07,02,01,59,11.00
2009,07,02,02,00,11.00
2009,07,02,02,01,10.90
2009,07,02,02,02,10.80
2009,07,02,02,03,10.80
2009,07,02,02,04,10.80
2009,07,02,02,05,10.70
2009,07,02,02,06,10.70
2009,07,02,02,07,10.70
2009,07,02,02,08,10.60
2009,07,02,02,09,10.60
2009,07,02,02,10,10.60
2009,07,02,02,11,10.60
2009,07,02,02,12,10.60
2009,07,02,02,13,10.60
2009,07,02,02,14,10.50
2009,07,02,02,15,10.50
2009,07,02,02,16,10.40
2009,07,02,02,17,10.40
2009,07,02,02,18,10.40
2009,07,02,02,19,10.30
2009,07,02,02,20,10.30
2009,07,02,02,21,10.30
2009,07,02,02,22,10.30
2009,07,02,02,23,10.30
2009,07,02,02,24,10.30
2009,07,02,02,25,10.30
2009,07,02,02,26,10.30
2009,07,02,02,27,10.30
2009,07,02,02,28,10.30
2009,07,02,02,29,10.30
2009,07,02,02,30,10.30
2009,07,02,02,31,10.30
2009,07,02,02,32,10.30
2009,07,02,02,33,10.30
2009,07,02,02,34,10.30
2009,07,02,02,35,10.20
2009,07,02,02,36,10.20
2009,07,02,02,37,10.20
2009,07,02,02,38,10.20
2009,07,02,02,39,10.20
2009,07,02,02,40,10.20
2009,07,02,02,41,10.20
2009,07,02,02,42,10.20
2009,07,02,02,43,10.20
2009,07,02,02,44,10.20
2009,07,02,02,45,10.20
2009,07,02,02,46,10.20
2009,07,02,02,47,10.20
2009,07,02,02,48,10.20
2009,07,02,02,49,10.20
2009,07,02,02,50,10.30
2009,07,02,02,51,10.30
2009,07,02,02,52,10.30
2009,07,02,02,53,10.30
2009,07,02,02,54,10.30
2009,07,02,02,55,10.30
2009,07,02,02,56,10.40
2009,07,02,02,57,10.40
2009,07,02,02,58,10.40
2009,07,02,02,59,10.40
2009,07,02,03,00,10.40
2009,07,02,03,01,10.40
2009,07,02,03,02,10.40
2009,07,02,03,03,10.40
2009,07,02,03,04,10.40
2009,07,02,03,05,10.30
2009,07,02,03,06,10.30
2009,07,02,03,07,10.30
2009,07,02,03,08,10.30
2009,07,02,03,09,10.30
2009,07,02,03,10,10.30
2009,07,02,03,11,10.30
2009,07,02,03,12,10.20
2009,07,02,03,13,10.20
2009,07,02,03,14,10.20
2009,07,02,03,15,10.10
2009,07,02,03,16,10.10
2009,07,02,03,17,10.10
2009,07,02,03,18,10.10
2009,07,02,03,19,10.10
2009,07,02,03,20,10.20
2009,07,02,03,21,10.20
2009,07,02,03,22,10.20
2009,07,02,03,23,10.10
2009,07,02,03,24,10.10
2009,07,02,03,25,10.10
2009,07,02,03,26,10.00
2009,07,02,03,27,10.00
2009,07,02,03,28,10.00
2009,07,02,03,29,9.90
2009,07,02,03,30,9.90
2009,07,02,03,31,9.80
2009,07,02,03,32,9.80
2009,07,02,03,33,9.80
2009,07,02,03,34,9.70
2009,07,02,03,35,9.70
2009,07,02,03,36,9.70
2009,07,02,03,37,9.70
2009,07,02,03,38,9.60
2009,07,02,03,39,9.60
2009,07,02,03,40,9.60
2009,07,02,03,41,9.60
2009,07,02,03,42,9.60
2009,07,02,03,43,9.60
2009,07,02,03,44,9.50
2009,07,02,03,45,9.50
2009,07,02,03,46,9.50
2009,07,02,03,47,9.50
2009,07,02,03,48,9.50
2009,07,02,03,49,9.40
2009,07,02,03,50,9.40
2009,07,02,03,51,9.40
2009,07,02,03,52,9.40
2009,07,02,03,53,9.40
2009,07,02,03,54,9.40
2009,07,02,03,55,9.50
2009,07,02,03,56,9.60
2009,07,02,03,57,9.60
2009,07,02,03,58,9.60
2009,07,02,03,59,9.70
2009,07,02,04,00,9.70
2009,07,02,04,01,9.70
2009,07,02,04,02,9.70
2009,07,02,04,03,9.60
2009,07,02,04,04,9.60
2009,07,02,04,05,9.60
2009,07,02,04,06,9.60
2009,07,02,04,07,9.60
2009,07,02,04,08,9.60
2009,07,02,04,09,9.60
2009,07,02,04,10,9.60
2009,07,02,04,11,9.60
2009,07,02,04,12,9.50
2009,07,02,04,13,9.50
2009,07,02,04,14,9.50
2009,07,02,04,15,9.50
2009,07,02,04,16,9.50
2009,07,02,04,17,9.40
2009,07,02,04,18,9.40
2009,07,02,04,19,9.40
2009,07,02,04,20,9.40
2009,07,02,04,21,9.40
2009,07,02,04,22,9.40
2009,07,02,04,23,9.40
2009,07,02,04,24,9.40
2009,07,02,04,25,9.40
2009,07,02,04,26,9.40
2009,07,02,04,27,9.40
2009,07,02,04,28,9.40
2009,07,02,04,29,9.30
2009,07,02,04,30,9.30
2009,07,02,04,31,9.40
2009,07,02,04,32,9.40
2009,07,02,04,33,9.40
2009,07,02,04,34,9.40
2009,07,02,04,35,9.40
2009,07,02,04,36,9.40
2009,07,02,04,37,9.40
2009,07,02,04,38,9.40
2009,07,02,04,39,9.40
2009,07,02,04,40,9.30
2009,07,02,04,41,9.30
2009,07,02,04,42,9.30
2009,07,02,04,43,9.30
2009,07,02,04,44,9.30
2009,07,02,04,45,9.30
2009,07,02,04,46,9.30
2009,07,02,04,47,9.30
2009,07,02,04,48,9.30
2009,07,02,04,49,9.30
2009,07,02,04,50,9.30
2009,07,02,04,51,9.20
2009,07,02,04,52,9.20
2009,07,02,04,53,9.20
2009,07,02,04,54,9.10
2009,07,02,04,55,9.10
2009,07,02,04,56,9.10
2009,07,02,04,57,9.10
2009,07,02,04,58,9.00
2009,07,02,04,59,9.00
2009,07,02,05,00,9.00
2009,07,02,05,01,8.90
2009,07,02,05,02,8.90
2009,07,02,05,03,8.80
2009,07,02,05,04,8.80
2009,07,02,05,05,8.70
2009,07,02,05,06,8.70
2009,07,02,05,07,8.70
2009,07,02,05,08,8.70
2009,07,02,05,09,8.70
2009,07,02,05,10,8.70
2009,07,02,05,11,8.70
2009,07,02,05,12,8.70
2009,07,02,05,13,8.70
2009,07,02,05,14,8.70
2009,07,02,05,15,8.70
2009,07,02,05,16,8.70
2009,07,02,05,17,8.70
2009,07,02,05,18,8.70
2009,07,02,05,19,8.80
2009,07,02,05,20,8.80
2009,07,02,05,21,8.80
2009,07,02,05,22,8.80
2009,07,02,05,23,8.80
2009,07,02,05,24,8.70
2009,07,02,05,25,8.70
2009,07,02,05,26,8.70
2009,07,02,05,27,8.70
2009,07,02,05,28,8.60
2009,07,02,05,29,8.60
2009,07,02,05,30,8.60
2009,07,02,05,31,8.60
2009,07,02,05,32,8.60
2009,07,02,05,33,8.60
2009,07,02,05,34,8.60
2009,07,02,05,35,8.60
2009,07,02,05,36,8.60
2009,07,02,05,37,8.60
2009,07,02,05,38,8.60
2009,07,02,05,39,8.70
2009,07,02,05,40,8.70
2009,07,02,05,41,8.70
2009,07,02,05,42,8.70
2009,07,02,05,43,8.80
2009,07,02,05,44,8.80
2009,07,02,05,45,8.80
2009,07,02,05,46,8.80
2009,07,02,05,47,8.80
2009,07,02,05,48,8.80
2009,07,02,05,49,8.80
2009,07,02,05,50,8.80
2009,07,02,05,51,8.80
2009,07,02,05,52,8.80
2009,07,02,05,53,8.80
2009,07,02,05,54,8.80
2009,07,02,05,55,8.80
2009,07,02,05,56,8.80
2009,07,02,05,57,8.80
2009,07,02,05,58,8.90
2009,07,02,05,59,8.90
2009,07,02,06,00,8.90
2009,07,02,06,01,8.90
2009,07,02,06,02,8.90
2009,07,02,06,03,8.90
2009,07,02,06,04,8.90
2009,07,02,06,05,8.90
2009,07,02,06,06,8.90
2009,07,02,06,07,8.90
2009,07,02,06,08,8.90
2009,07,02,06,09,8.90
2009,07,02,06,10,8.90
2009,07,02,06,11,8.90
2009,07,02,06,12,9.00
2009,07,02,06,13,9.00
2009,07,02,06,14,9.00
2009,07,02,06,15,9.00
2009,07,02,06,16,9.10
2009,07,02,06,17,9.10
2009,07,02,06,18,9.10
2009,07,02,06,19,9.10
2009,07,02,06,20,9.20
2009,07,02,06,21,9.20
2009,07,02,06,22,9.20
2009,07,02,06,23,9.30
2009,07,02,06,24,9.30
2009,07,02,06,25,9.30
2009,07,02,06,26,9.30
2009,07,02,06,27,9.30
2009,07,02,06,28,9.40
2009,07,02,06,29,9.40
2009,07,02,06,30,9.40
2009,07,02,06,31,9.40
2009,07,02,06,32,9.40
2009,07,02,06,33,9.40
2009,07,02,06,34,9.40
2009,07,02,06,35,9.40
2009,07,02,06,36,9.50
2009,07,02,06,37,9.50
2009,07,02,06,38,9.50
2009,07,02,06,39,9.60
2009,07,02,06,40,9.60
2009,07,02,06,41,9.60
2009,07,02,06,42,9.60
2009,07,02,06,43,9.60
2009,07,02,06,44,9.70
2009,07,02,06,45,9.80
2009,07,02,06,46,9.90
2009,07,02,06,47,10.00
2009,07,02,06,48,10.10
2009,07,02,06,49,10.10
2009,07,02,06,50,10.20
2009,07,02,06,51,10.30
2009,07,02,06,52,10.40
2009,07,02,06,53,10.50
2009,07,02,06,54,10.60
2009,07,02,06,55,10.70
2009,07,02,06,56,10.80
2009,07,02,06,57,10.90
2009,07,02,06,58,10.90
2009,07,02,06,59,11.00
2009,07,02,07,00,11.10
2009,07,02,07,01,11.10
2009,07,02,07,02,11.20
2009,07,02,07,03,11.20
2009,07,02,07,04,11.30
2009,07,02,07,05,11.40
2009,07,02,07,06,11.50
2009,07,02,07,07,11.60
2009,07,02,07,08,11.70
2009,07,02,07,09,11.70
2009,07,02,07,10,11.80
2009,07,02,07,11,11.80
2009,07,02,07,12,11.80
2009,07,02,07,13,11.90
2009,07,02,07,14,12.00
2009,07,02,07,15,12.10
2009,07,02,07,16,12.20
2009,07,02,07,17,12.30
2009,07,02,07,18,12.30
2009,07,02,07,19,12.40
2009,07,02,07,20,12.50
2009,07,02,07,21,12.50
2009,07,02,07,22,12.60
2009,07,02,07,23,12.70
2009,07,02,07,24,12.80
2009,07,02,07,25,12.90
2009,07,02,07,26,13.00
2009,07,02,07,27,13.10
2009,07,02,07,28,13.20
2009,07,02,07,29,13.30
2009,07,02,07,30,13.40
2009,07,02,07,31,13.50
2009,07,02,07,32,13.60
2009,07,02,07,33,13.70
2009,07,02,07,34,13.80
2009,07,02,07,35,14.00
2009,07,02,07,36,14.10
2009,07,02,07,37,14.30
2009,07,02,07,38,14.40
2009,07,02,07,39,14.60
2009,07,02,07,40,14.80
2009,07,02,07,41,15.00
2009,07,02,07,42,15.00
2009,07,02,07,43,15.10
2009,07,02,07,44,15.30
2009,07,02,07,45,15.40
2009,07,02,07,46,15.60
2009,07,02,07,47,15.70
2009,07,02,07,48,15.80
2009,07,02,07,49,16.00
2009,07,02,07,50,16.10
2009,07,02,07,51,16.20
2009,07,02,07,52,16.30
2009,07,02,07,53,16.40
2009,07,02,07,54,16.50
2009,07,02,07,55,16.60
2009,07,02,07,56,16.70
2009,07,02,07,57,16.80
2009,07,02,07,58,16.90
2009,07,02,07,59,17.00
2009,07,02,08,00,17.10
2009,07,02,08,01,17.20
2009,07,02,08,02,17.20
2009,07,02,08,03,17.30
2009,07,02,08,04,17.40
2009,07,02,08,05,17.50
2009,07,02,08,06,17.60
2009,07,02,08,07,17.70
2009,07,02,08,08,17.80
2009,07,02,08,09,17.80
2009,07,02,08,10,17.90
2009,07,02,08,11,18.00
2009,07,02,08,12,18.00
2009,07,02,08,13,18.10
2009,07,02,08,14,18.20
2009,07,02,08,15,18.20
2009,07,02,08,16,18.30
2009,07,02,08,17,18.30
2009,07,02,08,18,18.40
2009,07,02,08,19,18.50
2009,07,02,08,20,18.50
2009,07,02,08,21,18.60
2009,07,02,08,22,18.70
2009,07,02,08,23,18.70
2009,07,02,08,24,18.80
2009,07,02,08,25,18.90
2009,07,02,08,26,18.90
2009,07,02,08,27,19.00
2009,07,02,08,28,19.00
2009,07,02,08,29,19.00
2009,07,02,08,30,19.00
2009,07,02,08,31,19.10
2009,07,02,08,32,19.00
2009,07,02,08,33,19.00
2009,07,02,08,34,19.00
2009,07,02,08,35,19.00
2009,07,02,08,36,19.00
2009,07,02,08,37,19.00
2009,07,02,08,38,19.00
2009,07,02,08,39,19.10
2009,07,02,08,40,19.10
2009,07,02,08,41,19.10
2009,07,02,08,42,19.20
2009,07,02,08,43,19.20
2009,07,02,08,44,19.20
2009,07,02,08,45,19.20
2009,07,02,08,46,19.30
2009,07,02,08,47,19.30
2009,07,02,08,48,19.30
2009,07,02,08,49,19.30
2009,07,02,08,50,19.30
2009,07,02,08,51,19.30
2009,07,02,08,52,19.30
2009,07,02,08,53,19.30
2009,07,02,08,54,19.30
2009,07,02,08,55,19.30
2009,07,02,08,56,19.30
2009,07,02,08,57,19.30
2009,07,02,08,58,19.30
2009,07,02,08,59,19.30
2009,07,02,09,00,19.40
2009,07,02,09,01,19.40
2009,07,02,09,02,19.40
2009,07,02,09,03,19.40
2009,07,02,09,04,19.50
2009,07,02,09,05,19.50
2009,07,02,09,06,19.50
2009,07,02,09,07,19.60
2009,07,02,09,08,19.60
2009,07,02,09,09,19.60
2009,07,02,09,10,19.60
2009,07,02,09,11,19.70
2009,07,02,09,12,19.60
2009,07,02,09,13,19.60
2009,07,02,09,14,19.60
2009,07,02,09,15,19.70
2009,07,02,09,16,19.70
2009,07,02,09,17,19.70
2009,07,02,09,18,19.70
2009,07,02,09,19,19.70
2009,07,02,09,20,19.60
2009,07,02,09,21,19.60
2009,07,02,09,22,19.60
2009,07,02,09,23,19.50
2009,07,02,09,24,19.50
2009,07,02,09,25,19.40
2009,07,02,09,26,19.40
2009,07,02,09,27,19.40
2009,07,02,09,28,19.40
2009,07,02,09,29,19.40
2009,07,02,09,30,19.50
2009,07,02,09,31,19.50
2009,07,02,09,32,19.60
2009,07,02,09,33,19.60
2009,07,02,09,34,19.60
2009,07,02,09,35,19.60
2009,07,02,09,36,19.60
2009,07,02,09,37,19.60
2009,07,02,09,38,19.60
2009,07,02,09,39,19.70
2009,07,02,09,40,19.70
2009,07,02,09,41,19.70
2009,07,02,09,42,19.70
2009,07,02,09,43,19.70
2009,07,02,09,44,19.70
2009,07,02,09,45,19.60
2009,07,02,09,46,19.60
2009,07,02,09,47,19.60
2009,07,02,09,48,19.60
2009,07,02,09,49,19.60
2009,07,02,09,50,19.60
2009,07,02,09,51,19.70
2009,07,02,09,52,19.70
2009,07,02,09,53,19.80
2009,07,02,09,54,19.80
2009,07,02,09,55,19.80
2009,07,02,09,56,19.70
2009,07,02,09,57,19.60
2009,07,02,09,58,19.60
2009,07,02,09,59,19.60
2009,07,02,10,00,19.50
2009,07,02,10,01,19.50
2009,07,02,10,02,19.40
2009,07,02,10,03,19.40
2009,07,02,10,04,19.40
2009,07,02,10,05,19.40
2009,07,02,10,06,19.40
2009,07,02,10,07,19.40
2009,07,02,10,08,19.40
2009,07,02,10,09,19.40
2009,07,02,10,10,19.40
2009,07,02,10,11,19.40
2009,07,02,10,12,19.40
2009,07,02,10,13,19.50
2009,07,02,10,14,19.50
2009,07,02,10,15,19.60
2009,07,02,10,16,19.70
2009,07,02,10,17,19.80
2009,07,02,10,18,19.90
2009,07,02,10,19,20.00
2009,07,02,10,20,20.10
2009,07,02,10,21,20.10
2009,07,02,10,22,20.20
2009,07,02,10,23,20.20
2009,07,02,10,24,20.30
2009,07,02,10,25,20.30
2009,07,02,10,26,20.30
2009,07,02,10,27,20.40
2009,07,02,10,28,20.50
2009,07,02,10,29,20.50
2009,07,02,10,30,20.60
2009,07,02,10,31,20.60
2009,07,02,10,32,20.60
2009,07,02,10,33,20.50
2009,07,02,10,34,20.50
2009,07,02,10,35,20.40
2009,07,02,10,36,20.40
2009,07,02,10,37,20.40
2009,07,02,10,38,20.40
2009,07,02,10,39,20.40
2009,07,02,10,40,20.40
2009,07,02,10,41,20.40
2009,07,02,10,42,20.40
2009,07,02,10,43,20.50
2009,07,02,10,44,20.50
2009,07,02,10,45,20.60
2009,07,02,10,46,20.60
2009,07,02,10,47,20.60
2009,07,02,10,48,20.70
2009,07,02,10,49,20.70
2009,07,02,10,50,20.70
2009,07,02,10,51,20.80
2009,07,02,10,52,20.80
2009,07,02,10,53,20.80
2009,07,02,10,54,20.90
2009,07,02,10,55,20.90
2009,07,02,10,56,20.80
2009,07,02,10,57,20.80
2009,07,02,10,58,20.80
2009,07,02,10,59,20.80
2009,07,02,11,00,20.80
2009,07,02,11,01,20.80
2009,07,02,11,02,20.90
2009,07,02,11,03,20.90
2009,07,02,11,04,20.90
2009,07,02,11,05,20.90
2009,07,02,11,06,20.90
2009,07,02,11,07,20.90
2009,07,02,11,08,20.90
2009,07,02,11,09,20.90
2009,07,02,11,10,20.90
2009,07,02,11,11,20.90
2009,07,02,11,12,20.80
2009,07,02,11,13,20.80
2009,07,02,11,14,20.70
2009,07,02,11,15,20.70
2009,07,02,11,16,20.70
2009,07,02,11,17,20.70
2009,07,02,11,18,20.80
2009,07,02,11,19,20.80
2009,07,02,11,20,20.80
2009,07,02,11,21,20.80
2009,07,02,11,22,20.80
2009,07,02,11,23,20.80
2009,07,02,11,24,20.70
2009,07,02,11,25,20.70
2009,07,02,11,26,20.70
2009,07,02,11,27,20.70
2009,07,02,11,28,20.70
2009,07,02,11,29,20.70
2009,07,02,11,30,20.70
2009,07,02,11,31,20.60
2009,07,02,11,32,20.60
2009,07,02,11,33,20.60
2009,07,02,11,34,20.60
2009,07,02,11,35,20.60
2009,07,02,11,36,20.60
2009,07,02,11,37,20.50
2009,07,02,11,38,20.50
2009,07,02,11,39,20.50
2009,07,02,11,40,20.50
2009,07,02,11,41,20.60
2009,07,02,11,42,20.70
2009,07,02,11,43,20.70
2009,07,02,11,44,20.70
2009,07,02,11,45,20.80
2009,07,02,11,46,20.90
2009,07,02,11,47,20.90
2009,07,02,11,48,20.90
2009,07,02,11,49,21.00
2009,07,02,11,50,21.00
2009,07,02,11,51,21.20
2009,07,02,11,52,21.30
2009,07,02,11,53,21.30
2009,07,02,11,54,21.40
2009,07,02,11,55,21.30
2009,07,02,11,56,21.20
2009,07,02,11,57,21.10
2009,07,02,11,58,21.00
2009,07,02,11,59,21.00
2009,07,02,12,00,21.00
2009,07,02,12,01,21.00
2009,07,02,12,02,20.90
2009,07,02,12,03,20.90
2009,07,02,12,04,21.00
2009,07,02,12,05,21.10
2009,07,02,12,06,21.20
2009,07,02,12,07,21.30
2009,07,02,12,08,21.40
2009,07,02,12,09,21.40
2009,07,02,12,10,21.40
2009,07,02,12,11,21.50
2009,07,02,12,12,21.50
2009,07,02,12,13,21.60
2009,07,02,12,14,21.70
2009,07,02,12,15,21.70
2009,07,02,12,16,21.80
2009,07,02,12,17,21.90
2009,07,02,12,18,21.90
2009,07,02,12,19,21.90
2009,07,02,12,20,21.90
2009,07,02,12,21,21.90
2009,07,02,12,22,21.90
2009,07,02,12,23,21.90
2009,07,02,12,24,21.90
2009,07,02,12,25,21.90
2009,07,02,12,26,22.00
2009,07,02,12,27,22.00
2009,07,02,12,28,22.10
2009,07,02,12,29,22.30
2009,07,02,12,30,22.50
2009,07,02,12,31,22.70
2009,07,02,12,32,22.80
2009,07,02,12,33,23.00
2009,07,02,12,34,23.10
2009,07,02,12,35,23.10
2009,07,02,12,36,23.20
2009,07,02,12,37,23.20
2009,07,02,12,38,23.20
2009,07,02,12,39,23.20
2009,07,02,12,40,23.10
2009,07,02,12,41,23.10
2009,07,02,12,42,22.90
2009,07,02,12,43,22.90
2009,07,02,12,44,22.80
2009,07,02,12,45,22.70
2009,07,02,12,46,22.60
2009,07,02,12,47,22.60
2009,07,02,12,48,22.70
2009,07,02,12,49,22.80
2009,07,02,12,50,22.90
2009,07,02,12,51,22.90
2009,07,02,12,52,23.00
2009,07,02,12,53,23.00
2009,07,02,12,54,23.10
2009,07,02,12,55,23.30
2009,07,02,12,56,23.40
2009,07,02,12,57,23.40
2009,07,02,12,58,23.50
2009,07,02,12,59,23.60
2009,07,02,13,00,23.70
2009,07,02,13,01,23.70
2009,07,02,13,02,23.80
2009,07,02,13,03,23.90
2009,07,02,13,04,23.90
2009,07,02,13,05,23.90
2009,07,02,13,06,23.90
2009,07,02,13,07,23.90
2009,07,02,13,08,23.90
2009,07,02,13,09,23.80
2009,07,02,13,10,23.70
2009,07,02,13,11,23.60
2009,07,02,13,12,23.40
2009,07,02,13,13,23.20
2009,07,02,13,14,23.00
2009,07,02,13,15,22.90
2009,07,02,13,16,22.80
2009,07,02,13,17,22.70
2009,07,02,13,18,22.60
2009,07,02,13,19,22.60
2009,07,02,13,20,22.60
2009,07,02,13,21,22.50
2009,07,02,13,22,22.50
2009,07,02,13,23,22.60
2009,07,02,13,24,22.60
2009,07,02,13,25,22.70
2009,07,02,13,26,22.80
2009,07,02,13,27,22.90
2009,07,02,13,28,23.00
2009,07,02,13,29,23.00
2009,07,02,13,30,23.20
2009,07,02,13,31,23.10
2009,07,02,13,32,23.10
2009,07,02,13,33,23.00
2009,07,02,13,34,23.00
2009,07,02,13,35,22.90
2009,07,02,13,36,22.90
2009,07,02,13,37,22.80
2009,07,02,13,38,22.80
2009,07,02,13,39,22.80
2009,07,02,13,40,22.80
2009,07,02,13,41,22.80
2009,07,02,13,42,22.80
2009,07,02,13,43,22.80
2009,07,02,13,44,22.90
2009,07,02,13,45,23.00
2009,07,02,13,46,23.10
2009,07,02,13,47,23.20
2009,07,02,13,48,23.20
2009,07,02,13,49,23.20
2009,07,02,13,50,23.20
2009,07,02,13,51,23.20
2009,07,02,13,52,23.20
2009,07,02,13,53,23.20
2009,07,02,13,54,23.10
2009,07,02,13,55,23.10
2009,07,02,13,56,23.00
2009,07,02,13,57,23.00
2009,07,02,13,58,23.10
2009,07,02,13,59,23.10
2009,07,02,14,00,23.20
2009,07,02,14,01,23.30
2009,07,02,14,02,23.30
2009,07,02,14,03,23.30
2009,07,02,14,04,23.40
2009,07,02,14,05,23.40
2009,07,02,14,06,23.40
2009,07,02,14,07,23.40
2009,07,02,14,08,23.50
2009,07,02,14,09,23.40
2009,07,02,14,10,23.40
2009,07,02,14,11,23.40
2009,07,02,14,12,23.40
2009,07,02,14,13,23.50
2009,07,02,14,14,23.50
2009,07,02,14,15,23.50
2009,07,02,14,16,23.60
2009,07,02,14,17,23.60
2009,07,02,14,18,23.60
2009,07,02,14,19,23.70
2009,07,02,14,20,23.80
2009,07,02,14,21,23.80
2009,07,02,14,22,23.90
2009,07,02,14,23,23.90
2009,07,02,14,24,24.00
2009,07,02,14,25,24.00
2009,07,02,14,26,24.00
2009,07,02,14,27,24.00
2009,07,02,14,28,23.90
2009,07,02,14,29,23.90
2009,07,02,14,30,23.90
2009,07,02,14,31,23.90
2009,07,02,14,32,23.90
2009,07,02,14,33,23.90
2009,07,02,14,34,23.90
2009,07,02,14,35,23.90
2009,07,02,14,36,23.80
2009,07,02,14,37,23.80
2009,07,02,14,38,23.80
2009,07,02,14,39,23.80
2009,07,02,14,40,23.90
2009,07,02,14,41,23.90
2009,07,02,14,42,23.90
2009,07,02,14,43,24.00
2009,07,02,14,44,24.00
2009,07,02,14,45,24.10
2009,07,02,14,46,24.20
2009,07,02,14,47,24.30
2009,07,02,14,48,24.30
2009,07,02,14,49,24.30
2009,07,02,14,50,24.40
2009,07,02,14,51,24.40
2009,07,02,14,52,24.50
2009,07,02,14,53,24.60
2009,07,02,14,54,24.80
2009,07,02,14,55,24.90
2009,07,02,14,56,25.00
2009,07,02,14,57,25.10
2009,07,02,14,58,25.10
2009,07,02,14,59,25.10
2009,07,02,15,00,25.10
2009,07,02,15,01,25.00
2009,07,02,15,02,25.00
2009,07,02,15,03,24.90
2009,07,02,15,04,24.90
2009,07,02,15,05,24.80
2009,07,02,15,06,24.80
2009,07,02,15,07,24.80
2009,07,02,15,08,24.80
2009,07,02,15,09,24.80
2009,07,02,15,10,24.90
2009,07,02,15,11,24.90
2009,07,02,15,12,24.80
2009,07,02,15,13,24.90
2009,07,02,15,14,24.80
2009,07,02,15,15,24.80
2009,07,02,15,16,24.80
2009,07,02,15,17,24.80
2009,07,02,15,18,24.80
2009,07,02,15,19,24.90
2009,07,02,15,20,24.90
2009,07,02,15,21,24.90
2009,07,02,15,22,24.90
2009,07,02,15,23,24.90
2009,07,02,15,24,25.00
2009,07,02,15,25,25.00
2009,07,02,15,26,24.90
2009,07,02,15,27,24.90
2009,07,02,15,28,24.80
2009,07,02,15,29,24.80
2009,07,02,15,30,24.80
2009,07,02,15,31,24.80
2009,07,02,15,32,24.90
2009,07,02,15,33,24.90
2009,07,02,15,34,24.90
2009,07,02,15,35,24.80
2009,07,02,15,36,24.80
2009,07,02,15,37,24.70
2009,07,02,15,38,24.50
2009,07,02,15,39,24.40
2009,07,02,15,40,24.40
2009,07,02,15,41,24.30
2009,07,02,15,42,24.30
2009,07,02,15,43,24.20
2009,07,02,15,44,24.20
2009,07,02,15,45,24.20
2009,07,02,15,46,24.30
2009,07,02,15,47,24.40
2009,07,02,15,48,24.40
2009,07,02,15,49,24.50
2009,07,02,15,50,24.60
2009,07,02,15,51,24.60
2009,07,02,15,52,24.60
2009,07,02,15,53,24.60
2009,07,02,15,54,24.60
2009,07,02,15,55,24.60
2009,07,02,15,56,24.60
2009,07,02,15,57,24.70
2009,07,02,15,58,24.80
2009,07,02,15,59,24.90
2009,07,02,16,00,24.90
2009,07,02,16,01,25.00
2009,07,02,16,02,25.10
2009,07,02,16,03,25.10
2009,07,02,16,04,24.90
2009,07,02,16,05,24.70
2009,07,02,16,06,24.50
2009,07,02,16,07,24.40
2009,07,02,16,08,24.50
2009,07,02,16,09,24.50
2009,07,02,16,10,24.40
2009,07,02,16,11,24.40
2009,07,02,16,12,24.30
2009,07,02,16,13,24.20
2009,07,02,16,14,24.20
2009,07,02,16,15,24.20
2009,07,02,16,16,24.30
2009,07,02,16,17,24.40
2009,07,02,16,18,24.50
2009,07,02,16,19,24.60
2009,07,02,16,20,24.70
2009,07,02,16,21,24.80
2009,07,02,16,22,24.80
2009,07,02,16,23,24.90
2009,07,02,16,24,25.00
2009,07,02,16,25,25.10
2009,07,02,16,26,25.20
2009,07,02,16,27,25.40
2009,07,02,16,28,25.50
2009,07,02,16,29,25.60
2009,07,02,16,30,25.60
2009,07,02,16,31,25.70
2009,07,02,16,32,25.80
2009,07,02,16,33,25.80
2009,07,02,16,34,25.90
2009,07,02,16,35,26.00
2009,07,02,16,36,26.00
2009,07,02,16,37,25.90
2009,07,02,16,38,25.50
2009,07,02,16,39,24.90
2009,07,02,16,40,24.40
2009,07,02,16,41,23.90
2009,07,02,16,42,23.50
2009,07,02,16,43,23.20
2009,07,02,16,44,23.00
2009,07,02,16,45,22.80
2009,07,02,16,46,22.70
2009,07,02,16,47,22.60
2009,07,02,16,48,22.40
2009,07,02,16,49,22.40
2009,07,02,16,50,22.30
2009,07,02,16,51,22.30
2009,07,02,16,52,22.30
2009,07,02,16,53,22.20
2009,07,02,16,54,22.20
2009,07,02,16,55,22.20
2009,07,02,16,56,22.20
2009,07,02,16,57,22.20
2009,07,02,16,58,22.30
2009,07,02,16,59,22.30
2009,07,02,17,00,22.40
2009,07,02,17,01,22.50
2009,07,02,17,02,22.60
2009,07,02,17,03,22.60
2009,07,02,17,04,22.60
2009,07,02,17,05,22.60
2009,07,02,17,06,22.60
2009,07,02,17,07,22.60
2009,07,02,17,08,22.60
2009,07,02,17,09,22.60
2009,07,02,17,10,22.70
2009,07,02,17,11,22.70
2009,07,02,17,12,22.70
2009,07,02,17,13,22.70
2009,07,02,17,14,22.70
2009,07,02,17,15,22.60
2009,07,02,17,16,22.60
2009,07,02,17,17,22.60
2009,07,02,17,18,22.70
2009,07,02,17,19,22.70
2009,07,02,17,20,22.80
2009,07,02,17,21,22.80
2009,07,02,17,22,22.80
2009,07,02,17,23,22.80
2009,07,02,17,24,22.80
2009,07,02,17,25,22.80
2009,07,02,17,26,22.80
2009,07,02,17,27,22.80
2009,07,02,17,28,22.80